Mapledurham 10 2017
3 Dec 2017

     
Click here for more detailed race data

Page 1 of 6 (275 items)
PosBib NoNameTimeChip TimeCategoryCat PosGenderGen PosClubPace
1299Neil HART1:03:49.11:03:47.8Under 401Male1 9.4 m/hr
239Ian GOSLING1:04:03.21:04:01.240-491Male2Bracknell Forest Runners9.4 m/hr
381Colin SEYMOUR1:04:10.81:04:09.5Under 402Male3Fetch Everyone9.3 m/hr
461Laurence MILES1:04:47.81:04:40.840-492Male4Maidenhead AC9.3 m/hr
5403Marc SOANE1:06:52.71:06:50.340-493Male5Basingstoke and Mid Hants9.0 m/hr
6305Jon HEANEY1:07:15.11:07:13.6Under 403Male6 8.9 m/hr
7434Matthew WHITEHOUSE1:07:48.81:07:47.440-494Male7Datchet Dashers8.8 m/hr
8327John JAMES 1:08:05.51:08:02.8Under 404Male8 8.8 m/hr
9230Jonathan COLEMAN1:08:11.11:08:07.3Under 405Male9 8.8 m/hr
1037Tim GILES1:08:50.41:08:48.3Under 406Male10 8.7 m/hr
1154Ed JONES1:09:07.31:09:05.040-495Male11Reading Joggers8.7 m/hr
12233Graham COLLETT1:09:19.01:09:17.040-496Male12 8.7 m/hr
1392Tony WALKER1:09:25.61:09:22.840-497Male13Reading Road Runners8.6 m/hr
1487Gareth SYLVESTER-BRADLEY1:09:34.61:09:31.540-498Male14Tri208.6 m/hr
15355Ashley MIDDLEWICK1:09:53.51:09:22.5Under 407Male15Reading Road Runners8.6 m/hr
1625Mark DAVIDSON1:09:57.21:09:51.740-499Male16 8.6 m/hr
17360Ryan MORRIS1:10:20.01:10:13.440-4910Male17Compton Harriers8.5 m/hr
18342Mike LI-ROUSE1:10:39.51:10:33.5Under 408Male18Compton Harriers8.5 m/hr
1938Ellie GOSLING1:11:03.81:11:00.5Under 401Female1Bracknell Forest Runners8.4 m/hr
20229Richard COATES1:11:30.41:11:26.740-4911Male19Tri208.4 m/hr
2190Barry TUCKER1:11:44.81:11:44.840-4912Male20Reading Joggers8.4 m/hr
22176Barry REGAN1:11:56.51:11:36.7Under 409Male21 8.3 m/hr
23278George GEORGHIOU1:12:02.01:11:59.5Under 4010Male22 8.3 m/hr
24399Oliver SLOCOMBE1:12:07.61:11:53.9Under 4011Male238.3 m/hr
25277Mark GEORGE1:12:14.01:12:07.6Under 4012Male24Bracknell Forest Runners8.3 m/hr
264Stephen ALLFORD1:12:39.51:12:35.040-4913Male25Bramley Trail Runners8.3 m/hr
2766Nick ONSLOW1:12:42.31:12:39.640-4914Male26Bramley Trail Runners8.3 m/hr
2858Paul MCENTEGART1:12:42.71:12:35.740-4915Male27 8.3 m/hr
29423David WALKER1:13:10.11:13:00.4Under 4013Male28 8.2 m/hr
30378Natalie PLUMMER1:14:12.11:14:03.2Under 402Female2Chippenham Harriers 8.1 m/hr
31386George REICH1:14:22.11:14:13.940-4916Male29READING AC8.1 m/hr
3257Anthony LONG1:14:45.41:14:22.140-4917Male30Reading Road Runners8.0 m/hr
3321Richard CRAMPTON1:14:55.71:14:48.840-4918Male31Tri208.0 m/hr
3460Eoin MCLEOD1:15:08.51:15:05.940-4919Male32 8.0 m/hr
35214Mariusz BOROWIAK1:15:15.51:15:09.2Under 4014Male33Forest Dwellers8.0 m/hr
36248Jane DAVIES1:15:31.51:15:27.850-591Female3Reading Road Runners7.9 m/hr
37362Andrew MUIR1:15:38.11:15:19.140-4920Male34Abingdon AC7.9 m/hr
3897Lee WEBB1:15:41.01:15:36.640-4921Male35Bramley Trail Runners7.9 m/hr
39326Darren JAMES1:16:05.61:16:00.240-4922Male36Compton Harriers7.9 m/hr
4072Paul PERRATT1:16:11.81:16:00.640-4923Male37 7.9 m/hr
41424Graham WALKER1:16:43.11:16:35.550-591Male38Tadley Runners7.8 m/hr
4276Tom REDMAN1:17:15.11:17:13.9Under 4015Male39 7.8 m/hr
43429Ben WATSON1:17:15.21:16:56.340-4924Male40Abingdon AC7.8 m/hr
44422Victoria WAIGHT1:17:23.01:17:14.9Under 403Female4 7.8 m/hr
45205John BACKLEY1:17:28.81:17:08.750-592Male417.7 m/hr
46364Tom NASH1:17:37.11:17:26.2Under 4016Male42 7.7 m/hr
47246Lauren DAVIES1:17:38.41:17:35.640-491Female5 7.7 m/hr
4844Peter HENRY1:17:54.41:17:46.2Under 4017Male43Reading Joggers7.7 m/hr
49309Kristian HENRY1:17:54.71:17:46.4Under 4018Male44Horsforth Harriers 7.7 m/hr
505Chris BAKER1:17:56.31:17:45.640-4925Male457.7 m/hr
Page 1 of 6 (275 items)
   

fb